Location: De Platvoet
(52.2667°N, 6.1667°E)
Time: 08:31:52
(UTC+00:00)

ARIANE 5 R/B - Pass Details

Date: 15 May 2026
Orbit: 614 x 648 km, 98.0° (Epoch: 14 September)

Event Time Altitude Azimuth Distance (km) Brightness Sun altitude
Exits shadow 22:52:41 38° 178° (S) 979 3.0 -18.2°
Maximum altitude 22:54:20 76° 257° (WSW) 668 2.6 -18.2°
Drops below altitude 10° 22:58:49 10° 343° (NNW) 2,055 6.5 -18.3°
Sets 23:01:03 0° 345° (NNW) 2,972 7.7 -18.4°
